Change the Weather History Date:

Saturday, December 1, 2012

  Actual Average Record
Temperature  
Mean Temperature 36 °F -  
Max Temperature 41 °F - - ()
Min Temperature 30 °F - - ()
Degree Days  
Heating Degree Days 30    
Moisture  
Dew Point 33 °F    
Average Humidity 84    
Maximum Humidity 99    
Minimum Humidity 63    
Precipitation  
Precipitation 0.00 in - - ()
Sea Level Pressure  
Sea Level Pressure 29.91 in    
Wind  
Wind Speed 9 mph ()    
Max Wind Speed 21 mph    
Max Gust Speed -    
Visibility 6.9 miles    
Events Rain    
T = Trace of Precipitation, MM = Missing Value Source: Averaged Metar Reports

Daily Weather History Graph

Daily Weather History Graph

Search for Another Location

Airport or City:

Trip Planner

Search our weather history database for the weather conditions in past years. The results will help you decide how hot, cold, wet, or windy it might be!

Date:

Astronomy

Dec. 01, 2012 Rise Set
Actual Time 7:37 AM GMT 3:49 PM GMT
Civil Twilight 6:58 AM GMT 4:28 PM GMT
Nautical Twilight 6:16 AM GMT 5:10 PM GMT
Astronomical Twilight 5:36 AM GMT 5:50 PM GMT
Moon 6:30 PM GMT (12/1) 9:37 AM GMT (12/1)
Length of Visible Light 9h 29m
Length of Day
8h 11m
Waning Gibbous, 93% of the Moon is Illuminated
Dec 1
Waning Gibbous
Dec 6
Last Quarter
Dec 13
New
Dec 20
First Quarter
Dec 28
Full

Hourly Weather History & Observations

Time (GMT) Temp. Windchill Dew Point Humidity Pressure Visibility Wind Dir Wind Speed Gust Speed Precip Events Conditions
2:50 AM 34 °F - 34 °F 98% 29.95 in 4 mi West 8.1 mph - -   Mist
5:50 AM 31 °F - 31 °F 99% 29.96 in 3 mi West 8.1 mph - -   Mist
7:20 AM 30.2 °F 25.4 °F 28.4 °F 93% 29.95 in 6.2 mi WSW 4.6 mph - N/A   Partly Cloudy
7:50 AM 30.2 °F 23.4 °F 28.4 °F 93% 29.95 in 6.2 mi West 6.9 mph - N/A   Partly Cloudy
8:20 AM 32.0 °F 26.4 °F 30.2 °F 93% 29.95 in - West 5.8 mph - N/A   Clear
8:50 AM 32 °F - 31 °F 94% 29.95 in 7 mi SW 6.9 mph - -   Mostly Cloudy
8:50 AM 32.0 °F 27.5 °F 30.2 °F 93% 29.92 in 6.2 mi SW 4.6 mph - N/A   Partly Cloudy
9:20 AM 33.8 °F 28.6 °F 30.2 °F 87% 29.95 in 6.2 mi WSW 5.8 mph - N/A   Partly Cloudy
9:50 AM 33.8 °F 28.6 °F 30.2 °F 87% 29.95 in 6.2 mi WSW 5.8 mph - N/A   Partly Cloudy
10:20 AM 37.4 °F 31.4 °F 32.0 °F 81% 29.92 in 6.2 mi SW 8.1 mph - N/A   Partly Cloudy
10:50 AM 37.4 °F 32.1 °F 32.0 °F 81% 29.92 in 6.2 mi SW 6.9 mph - N/A   Partly Cloudy
11:20 AM 37.4 °F 31.4 °F 32.0 °F 81% 29.92 in 6.2 mi SW 8.1 mph - N/A   Partly Cloudy
11:50 AM 41 °F - 33 °F 63% 29.92 in 28 mi SW 12.7 mph - -   Scattered Clouds
11:50 AM 41.0 °F 34.7 °F 33.8 °F 76% 29.89 in 6.2 mi SW 10.4 mph - N/A   Partly Cloudy
12:20 PM 41.0 °F 34.3 °F 33.8 °F 76% 29.89 in 6.2 mi WSW 11.5 mph - N/A Rain Light Rain
12:50 PM 41.0 °F 34.3 °F 35.6 °F 81% 29.89 in 6.2 mi West 11.5 mph - N/A   Scattered Clouds
1:20 PM 41.0 °F 34.3 °F 35.6 °F 81% 29.89 in 6.2 mi West 11.5 mph - N/A   Scattered Clouds
1:50 PM 41.0 °F 33.9 °F 37.4 °F 87% 29.89 in 6.2 mi West 12.7 mph - N/A   Scattered Clouds
2:20 PM 41.0 °F 31.6 °F 37.4 °F 87% 29.86 in 6.2 mi WNW 20.7 mph - N/A   Mostly Cloudy
2:50 PM 40 °F - 37 °F 87% 29.90 in 16 mi WNW 16.1 mph - - Rain Rain
2:50 PM 41.0 °F 31.6 °F 37.4 °F 87% 29.86 in 6.2 mi NW 20.7 mph - N/A   Mostly Cloudy
3:20 PM 39.2 °F 29.6 °F 35.6 °F 87% 29.89 in 6.2 mi WNW 19.6 mph - N/A   Mostly Cloudy
3:50 PM 39.2 °F 29.8 °F 35.6 °F 87% 29.89 in 6.2 mi NW 18.4 mph - N/A   Mostly Cloudy
4:20 PM 39.2 °F 30.2 °F 33.8 °F 81% 29.89 in 6.2 mi NW 17.3 mph - N/A   Mostly Cloudy
4:50 PM 39.2 °F 29.8 °F 33.8 °F 81% 29.89 in 6.2 mi NW 18.4 mph - N/A   Mostly Cloudy
5:20 PM 39.2 °F 29.3 °F 33.8 °F 81% 29.89 in 6.2 mi NW 20.7 mph - N/A   Mostly Cloudy
5:50 PM 40 °F - 34 °F 73% 29.92 in 25 mi NW 16.1 mph - -   Overcast
5:50 PM 39.2 °F 29.8 °F 33.8 °F 81% 29.89 in 6.2 mi NW 18.4 mph - N/A   Mostly Cloudy
8:50 PM 37 °F - 32 °F 77% 29.93 in 28 mi NW 15.0 mph - -  
11:50 PM 35 °F - 31 °F 79% 29.96 in 18 mi NW 12.7 mph - -   Partly Cloudy